Presure
168 187 175 139 171 171 175 140 145 174 159 169 188 200 176 168 197 188 214 254 248 230 234 238 223 218 209 203 203 234 237 222 211 221 214 202 208 212 209 228 222 213 232
200 171 170 150 169 174 182 186 197 178 198 198 197 197 198 208 222 251 241 181 233 231 235 226 217 207 224 215 213 240 214 212 174 197 221 198 193 200 221 216 195 240 208
165 142 148 182 189 184 192 160 195 195 190 197 202 208 265 259 241 230 233 222 223 218 212 186 214 232 226 188 193 211 210 206 217 162 210 204 194 198 207 194 210 211 224
187 187 173 174 189 186 188 186 192 191 207 239 262 239 240 239 217 217 221 245 232 245 238 234 242 228 209 218 205 208 207 205 209 206 208 207 213 213 209 216 207 214 215
190 192 193 186 193 192 194 194 215 235 249 244 242 248 239 241 250 249 241 236 239 241 240 239 196 212 227 227 209 204 195 199 196 196 194 203 207 209 210 192 212 206 214
196 196 194 193 208 232 261 237 251 254 256 233 227 220 224 228 236 235 238 193 241 226 226 240 238 245 236 241 233 231 238 232 227 227 177 181 205 210 216 189 216 213 210
223 256 254 250 249 238 235 231 224 216 212 217 216 200 198 198 196 198 196 193 205 232 224 232 235 247 242 240 205 184 225 232 211 216 228 225 225 222 208 219 202 205 220
236 232 226 216 215 212 203 201 202 193 202 180 196 196 186 199 194 187 197 197 229 233 186 232 214 254 218 216 253 218 241 234 233 241 225 224 216 211 214 224 228 202 211
172 130 192 141 146 192 190 188 191 182 200 203 203 209 214 213 209 189 224 219 231 225 244 233 156 241 241 212 242 233 243 238 235 196 241 238 210 195 186 234 235 234 230
206 193 123 123 123 133 188 195 198 207 150 201 214 217 212 183 218 205 234 232 237 252 151 246 248 241 247 196 253 243 234 250 229 254 159 178 245 238 231 239 239 234 223
192 198 182 197 177 166 205 207 177 195 217 211 177 231 147 225 226 219 223 193 212 219 190 244 263 233 259 250 241 253 260 247 231 246 234 210 197 229 206 249 232 240 238
202 213 203 193 187 199 179 193 178 224 225 207 237 235 238 178 161 234 240 233 184 235 159 212 231 267 254 196 256 258 256 261 253 246 258 173 253 251 232 197 261 266 263
193 193 194 204 203 194 190 166 158 156 216 167 171 246 241 241 218 222 250 245 243 242 247 240 250 271 264 260 263 265 264 254 256 168 248 260 163 257 181 167 171 265 264
190 181 156 172 171 168 168 205 212 190 256 259 241 238 230 245 247 254 256 253 254 253 253 244 264 271 267 266 259 263 267 269 277 293 281 278 236 241 252 316 285 298 287
167 168 164 225 170 255 247 258 236 254 252 247 243 245 243 250 252 249 255 259 257 260 268 269 259 273 274 271 273 275 287 287 296 302 318 353 343 324 336 335 339 333 335
212 217 207 242 232 258 252 266 261 248 251 259 263 258 254 251 242 249 258 265 264 269 261 258 254 272 263 288 296 300 305 314 307 369 360 353 336 331 328 322 325 328 319
226 244 243 252 254 260 250 258 259 265 263 241 253 263 262 250 266 262 263 267 264 275 266 257 282 290 290 301 306 325 322 374 367 367 369 360 352 340 329 325 320 318 316
239 256 247 263 270 261 247 264 254 260 262 266 254 254 266 268 263 264 267 268 274 274 278 298 304 317 332 353 381 363 362 368 369 357 334 353 358 349 341 335 330 319 322
256 255 262 250 262 265 260 257 263 263 254 259 266 266 261 259 263 272 272 272 285 291 302 320 348 371 365 378 383 380 386 385 377 371 373 373 365 360 355 350 341 334 331
265 263 268 256 266 255 264 268 252 263 260 271 252 254 258 273 277 272 280 289 303 335 346 374 389 392 385 388 386 383 416 424 393 370 382 382 385 369 359 357 351 344 342
270 251 262 262 253 259 254 275 262 259 257 265 267 273 276 282 280 287 300 339 350 381 388 386 398 420 417 450 431 435 416 409 409 412 421 429 437 368 381 385 365 353 348
270 271 268 273 266 260 265 267 273 276 276 279 279 284 290 300 324 339 373 383 393 398 418 421 484 457 460 463 467 473 401 431 407 381 388 395 402 409 417 411 399 380 366
269 277 271 279 276 270 269 276 289 291 290 295 298 309 328 342 375 388 391 404 418 454 466 453 417 435 428 441 461 463 464 467 468 470 472 473 405 414 384 398 406 416 418
277 273 277 282 292 286 280 288 294 306 314 324 335 343 376 384 385 406 408 479 456 438 435 432 418 413 423 437 440 445 453 456 456 450 450 460 460 444 439 431 415 405 407
283 284 282 294 298 305 315 319 319 340 348 360 370 377 383 401 411 477 445 423 412 411 406 396 398 417 429 431 436 437 432 432 434 436 440 440 444 439 411 408 403 402 406
303 306 312 322 329 331 334 342 356 365 370 368 382 393 394 473 440 421 404 396 389 384 384 393 409 420 430 430 418 417 416 415 413 413 413 411 408 384 399 396 395 394 393
Wind_Speed
73 79 77 51 79 80 71 54 66 86 75 82 81 91 79 74 88 82 74 55 56 54 50 46 43 43 43 44 44 34 33 38 38 32 37 32 30 30 31 23 24 26 20
83 77 80 55 78 83 87 90 91 80 93 93 91 94 93 94 89 70 66 63 63 59 53 52 47 47 44 43 44 34 42 41 47 40 34 39 38 34 32 31 27 22 28
73 56 64 85 88 89 91 72 92 92 95 95 97 98 68 69 74 74 72 70 68 65 62 55 56 54 50 54 54 48 47 46 45 43 42 38 42 42 39 35 35 32 28
86 87 78 79 91 89 92 94 95 95 97 93 71 85 77 76 78 78 78 70 73 66 66 64 59 59 59 56 55 52 51 52 50 51 51 47 44 40 41 39 40 37 33
88 90 90 92 93 94 95 95 98 94 82 81 79 76 78 77 72 71 73 75 74 73 70 69 61 64 65 63 62 60 59 58 56 55 56 56 53 46 44 47 46 42 39
90 91 92 93 95 92 68 81 72 71 69 79 79 79 81 83 80 78 76 71 73 79 79 75 75 72 69 67 67 66 63 62 63 61 61 60 60 56 51 52 49 45 45
85 72 69 70 74 76 76 76 76 76 78 79 80 79 77 77 77 76 75 76 78 85 78 83 80 77 76 78 68 64 71 71 67 68 68 68 67 63 58 58 51 53 51
71 74 75 76 78 78 76 78 80 79 82 80 82 83 81 84 81 79 81 81 87 89 75 90 81 84 78 78 80 75 79 76 76 76 71 73 68 66 66 64 65 59 56
79 56 80 54 58 83 83 85 86 83 89 92 93 95 96 95 95 83 96 94 94 94 89 92 70 93 91 84 87 83 88 84 82 76 82 83 74 71 56 74 75 73 71
84 81 54 54 54 58 91 93 92 97 71 94 97 97 98 80 99 93 95 99 97 96 69 94 92 94 97 85 93 94 89 94 83 90 58 73 89 85 81 82 82 77 70
85 86 81 87 88 79 96 96 85 97 100 100 87 96 76 101 101 102 102 83 87 102 81 97 97 90 97 98 92 95 95 97 89 96 88 73 68 79 72 91 84 86 83
91 96 93 90 94 96 82 99 90 103 96 102 100 101 99 81 76 104 101 101 83 102 74 91 100 98 102 77 102 100 99 99 101 98 103 72 101 98 84 73 97 97 97
91 93 96 102 104 98 102 64 58 61 100 69 70 96 98 100 112 109 104 105 105 105 104 105 105 105 107 108 107 107 107 106 104 59 100 107 55 103 63 55 58 100 96
98 103 67 89 62 71 71 108 110 102 93 96 99 101 109 105 105 106 109 109 109 111 111 109 114 112 112 113 113 111 111 109 109 108 104 103 90 96 97 98 99 96 94
90 77 68 107 75 99 100 99 107 97 97 98 101 102 104 106 109 107 113 114 114 117 117 118 114 119 119 119 118 115 117 113 112 110 99 88 84 86 82 83 80 82 79
107 107 115 105 106 101 99 100 99 97 100 104 109 107 109 109 108 114 118 117 118 119 117 119 117 123 121 124 125 125 122 117 113 87 85 83 83 82 82 81 80 78 76
106 111 109 108 103 104 101 104 104 109 109 100 106 114 114 107 118 120 120 121 120 123 123 122 127 128 128 128 125 117 114 90 89 86 84 84 83 82 82 82 82 82 78
114 116 108 108 106 106 101 108 100 105 110 116 111 109 117 119 117 118 121 123 125 128 132 134 131 129 123 111 93 93 90 86 84 85 86 84 84 83 83 82 83 83 82
119 110 110 106 107 110 112 109 110 109 107 113 121 125 126 121 122 127 127 127 132 134 134 129 118 102 98 93 90 87 84 82 82 82 81 82 84 84 83 84 83 82 83
105 106 112 108 113 111 113 118 111 116 114 122 118 122 124 129 130 130 135 137 138 126 119 105 95 90 88 85 82 80 73 71 75 77 76 75 75 80 81 83 83 83 83
109 106 110 114 111 113 113 122 120 118 119 123 126 130 130 132 128 131 134 121 115 100 94 90 86 80 76 67 68 65 66 64 63 62 62 61 62 71 72 74 80 83 82
108 110 112 114 116 119 123 121 121 124 126 128 127 129 133 135 129 116 104 97 91 87 81 76 55 58 55 53 52 51 57 52 56 60 58 58 58 57 57 59 65 72 78
112 111 113 115 118 120 121 123 124 126 127 128 127 127 119 112 101 94 90 85 78 64 56 56 57 52 52 49 46 45 42 39 38 39 39 40 51 52 59 57 56 56 57
113 113 116 118 121 122 121 123 125 124 122 119 113 107 97 93 89 83 78 57 55 54 52 50 50 48 46 42 39 37 35 33 32 31 33 32 33 38 39 42 47 50 52
115 116 116 120 119 120 119 115 113 106 102 98 95 90 87 81 75 58 55 52 51 49 48 47 45 42 37 33 31 28 27 27 26 26 26 26 26 29 34 37 40 43 44
113 114 114 112 107 105 103 101 97 94 90 88 85 80 76 58 56 51 49 48 47 46 43 41 38 33 30 27 24 23 22 22 22 22 22 22 24 28 29 32 35 36 38
Wind_Direction
270 276 275 282 277 280 284 280 282 289 288 290 294 298 294 294 300 299 304 305 308 308 309 307 304 302 299 299 301 287 285 294 300 299 303 304 309 308 310 314 312 313 309
275 271 272 290 280 283 285 286 290 291 293 295 296 297 298 301 301 300 303 294 306 307 306 304 301 298 301 298 299 282 298 297 299 297 295 298 298 299 307 304 298 305 302
276 278 277 282 283 283 287 284 291 292 293 294 296 298 294 297 298 299 300 302 302 302 302 297 300 300 296 293 294 294 294 293 294 291 293 290 290 294 296 288 297 295 297
277 278 281 284 285 287 288 289 290 291 293 292 292 295 297 297 300 300 300 298 301 298 298 297 294 295 294 291 288 288 287 288 288 289 289 287 285 286 288 287 287 291 289
279 281 282 282 285 286 287 289 293 292 292 292 293 292 294 295 292 291 294 298 296 295 296 297 290 293 292 289 287 284 283 283 283 284 284 284 283 280 277 280 282 282 281
280 281 283 285 288 288 285 289 288 290 290 294 297 300 300 300 296 296 295 291 292 300 299 293 292 287 289 283 285 285 278 278 280 279 283 283 278 278 278 275 274 273 273
282 283 283 284 287 290 291 294 295 296 296 298 298 292 290 292 291 292 292 290 296 297 296 297 293 285 285 285 279 287 277 279 277 277 274 274 274 274 270 273 276 267 272
286 287 288 290 290 290 289 289 291 292 291 288 287 288 288 292 289 287 291 291 293 293 282 293 292 283 292 286 277 284 277 279 272 269 274 273 272 273 271 271 270 265 265
274 280 283 285 290 284 284 284 286 288 290 291 291 291 292 292 291 289 293 293 290 291 286 290 283 285 285 282 281 283 277 276 276 270 266 267 270 272 274 269 269 268 266
285 286 281 282 284 291 284 286 288 289 284 289 290 290 290 289 292 292 287 290 288 284 283 283 281 281 280 281 277 278 277 275 279 271 270 276 264 266 267 265 266 265 261
280 283 284 283 284 288 288 288 284 285 291 289 287 284 287 289 289 288 288 283 286 291 286 287 287 282 278 278 276 275 273 274 274 274 276 275 273 265 272 264 266 264 264
282 285 284 280 280 283 284 283 288 288 286 287 284 285 283 286 286 285 283 286 287 286 289 286 287 283 279 280 276 273 271 269 269 273 270 273 270 269 272 278 266 264 262
280 280 281 284 283 281 281 291 286 284 284 297 298 283 283 282 286 287 283 282 282 282 282 283 283 280 277 276 275 275 275 272 272 278 267 269 263 272 277 276 282 267 267
276 276 278 286 293 298 292 282 283 287 284 284 283 281 282 283 284 285 284 283 283 282 282 280 281 278 276 275 276 276 276 276 277 276 272 271 276 272 270 266 265 265 264
287 289 299 285 296 289 288 289 284 285 284 283 282 282 282 283 284 284 284 284 283 283 283 282 282 281 280 278 278 278 278 279 279 279 278 276 272 270 267 263 261 261 258
279 287 280 287 282 292 289 288 286 286 283 284 284 283 282 280 280 283 284 284 282 283 282 283 285 282 284 283 283 283 284 283 283 278 273 270 268 266 263 261 259 257 256
285 289 289 291 292 286 289 286 286 284 283 282 283 283 282 280 282 282 283 283 283 283 282 283 282 284 283 282 285 285 283 280 279 275 271 268 265 262 261 259 258 256 254
288 293 287 292 282 283 286 284 285 284 283 282 282 283 283 282 281 282 283 283 283 283 284 286 286 287 288 288 285 285 283 279 276 275 273 270 266 264 260 258 255 255 253
289 287 285 288 285 280 281 284 283 281 281 281 280 281 283 286 285 285 285 286 287 288 288 290 292 292 290 288 286 284 281 279 277 274 271 267 265 263 261 258 256 254 252
283 283 277 284 279 286 281 279 283 281 282 278 284 283 284 284 285 286 286 287 289 292 293 294 293 291 289 287 286 284 278 276 275 273 270 268 265 262 260 258 256 255 254
276 284 281 280 284 282 284 277 281 283 285 283 282 282 284 285 286 287 289 292 295 295 294 293 292 292 290 288 287 284 281 278 274 272 270 269 267 262 260 259 256 255 254
277 275 277 275 276 280 280 282 282 280 280 282 284 284 285 287 291 293 297 297 296 295 295 294 292 292 291 290 287 286 280 279 274 271 269 267 265 263 261 258 256 255 254
276 275 275 275 275 278 281 283 282 282 283 285 285 287 290 293 297 298 297 297 297 296 295 294 292 294 294 293 292 290 290 286 279 275 273 272 265 263 259 257 256 255 253
272 275 276 277 276 277 281 283 285 286 287 289 291 292 296 297 298 298 297 296 295 295 295 295 296 295 294 295 296 293 290 286 282 277 274 274 269 265 261 257 253 255 254
272 274 278 278 280 282 285 285 286 289 290 293 295 296 297 297 298 298 296 296 296 296 295 296 296 296 296 296 293 289 287 284 281 279 277 275 270 264 259 257 255 255 256
275 277 280 282 284 285 287 288 290 291 293 294 296 297 297 299 297 295 295 295 294 295 298 297 295 294 293 290 288 288 285 283 281 279 275 271 265 260 259 258 258 258 257